Weather History for Mount Vernon, IL

Change the Weather History Date:

Saturday, November 24, 2012

  Actual Average Record
Temperature  
Mean Temperature 30 °F -  
Max Temperature 37 °F 50 °F 66 °F (2006)
Min Temperature 23 °F 32 °F 15 °F (2013)
Degree Days  
Heating Degree Days 35    
Moisture  
Dew Point 20 °F    
Average Humidity 68    
Maximum Humidity 86    
Minimum Humidity 52    
Precipitation  
Precipitation 0.00 in - - ()
Sea Level Pressure  
Sea Level Pressure 30.26 in    
Wind  
Wind Speed 2 mph (WSW)    
Max Wind Speed 8 mph    
Max Gust Speed -    
Visibility 10 miles    
Events      
Averages and records for this station are not official NWS values.
T = Trace of Precipitation, MM = Missing Value Source: NWS Daily Summary

Daily Weather History Graph

Daily Weather History Graph

Search for Another Location

Airport:

Trip Planner

Search our weather history database for the weather conditions in past years. The results will help you decide how hot, cold, wet, or windy it might be!

Date:

Astronomy

Nov. 24, 2012 Rise Set
Actual Time 6:46 AM CST 4:37 PM CST
Civil Twilight 6:18 AM CST 5:06 PM CST
Nautical Twilight 5:45 AM CST 5:38 PM CST
Astronomical Twilight 5:14 AM CST 6:10 PM CST
Moon 2:19 PM CST (11/24) 3:06 AM CST (11/24)
Length of Visible Light 10h 48m
Length of Day
9h 50m
Waxing Gibbous, 87% of the Moon is Illuminated
Nov 24
Waxing Gibbous
Nov 28
Full
Dec 6
Last Quarter
Dec 13
New
Dec 19
First Quarter

Hourly Weather History & Observations

Time (CST) Temp. Windchill Dew Point Humidity Pressure Visibility Wind Dir Wind Speed Gust Speed Precip Events Conditions
12:15 AM 30.2 °F - 17.6 °F 60% 30.33 in 10.0 mi Calm Calm - N/A   Clear
12:35 AM 30.2 °F 26.7 °F 17.6 °F 60% 30.33 in 10.0 mi NW 3.5 mph - N/A   Clear
12:55 AM 28.4 °F - 17.6 °F 64% 30.33 in 10.0 mi Calm Calm - N/A   Clear
1:15 AM 28.4 °F - 17.6 °F 64% 30.33 in 10.0 mi Calm Calm - N/A   Clear
1:35 AM 28.4 °F - 17.6 °F 64% 30.32 in 10.0 mi Calm Calm - N/A   Clear
1:55 AM 28.4 °F - 17.6 °F 64% 30.32 in 10.0 mi Calm Calm - N/A   Clear
2:15 AM 28.4 °F - 19.4 °F 69% 30.32 in 10.0 mi Calm Calm - N/A   Clear
2:35 AM 26.6 °F - 17.6 °F 69% 30.32 in 10.0 mi Calm Calm - N/A   Clear
2:55 AM 26.6 °F - 17.6 °F 69% 30.32 in 10.0 mi Calm Calm - N/A   Clear
3:15 AM 26.6 °F - 19.4 °F 74% 30.32 in 10.0 mi Calm Calm - N/A   Clear
3:35 AM 26.6 °F - 17.6 °F 69% 30.32 in 10.0 mi Calm Calm - N/A   Clear
3:55 AM 26.6 °F - 17.6 °F 69% 30.32 in 10.0 mi Calm Calm - N/A   Clear
4:15 AM 26.6 °F - 17.6 °F 69% 30.32 in 10.0 mi Calm Calm - N/A   Clear
4:35 AM 26.6 °F - 17.6 °F 69% 30.32 in 10.0 mi Calm Calm - N/A   Clear
4:55 AM 26.6 °F - 17.6 °F 69% 30.32 in 10.0 mi Calm Calm - N/A   Clear
5:15 AM 24.8 °F - 17.6 °F 74% 30.32 in 10.0 mi Calm Calm - N/A   Clear
5:35 AM 24.8 °F - 17.6 °F 74% 30.32 in 10.0 mi Calm Calm - N/A   Clear
5:55 AM 23.0 °F - 19.4 °F 86% 30.32 in 10.0 mi Calm Calm - N/A   Clear
6:15 AM 24.8 °F - 17.6 °F 74% 30.32 in 10.0 mi Calm Calm - N/A   Clear
6:35 AM 23.0 °F - 17.6 °F 80% 30.33 in 10.0 mi Calm Calm - N/A   Clear
6:55 AM 23.0 °F - 17.6 °F 80% 30.32 in 10.0 mi Calm Calm - N/A   Clear
7:15 AM 24.8 °F - 19.4 °F 80% 30.33 in 10.0 mi Calm Calm - N/A   Clear
7:35 AM 24.8 °F - 19.4 °F 80% 30.33 in 10.0 mi Calm Calm - N/A   Clear
7:55 AM 26.6 °F 22.6 °F 19.4 °F 74% 30.34 in 10.0 mi West 3.5 mph - N/A   Clear
8:15 AM 26.6 °F 21.2 °F 19.4 °F 74% 30.35 in 10.0 mi West 4.6 mph - N/A   Clear
8:35 AM 26.6 °F 19.1 °F 19.4 °F 74% 30.35 in 10.0 mi WNW 6.9 mph - N/A   Scattered Clouds
8:55 AM 28.4 °F 21.2 °F 19.4 °F 69% 30.35 in 10.0 mi WNW 6.9 mph - N/A   Mostly Cloudy
9:15 AM 28.4 °F 21.2 °F 19.4 °F 69% 30.35 in 10.0 mi WNW 6.9 mph - N/A   Partly Cloudy
9:35 AM 28.4 °F 24.6 °F 19.4 °F 69% 30.36 in 10.0 mi NNW 3.5 mph - N/A   Partly Cloudy
9:55 AM 28.4 °F 23.3 °F 17.6 °F 64% 30.36 in 10.0 mi WNW 4.6 mph - N/A   Clear
10:15 AM 30.2 °F - 17.6 °F 60% 30.36 in 10.0 mi Calm Calm - N/A   Clear
10:35 AM 30.2 °F - 17.6 °F 60% 30.35 in 10.0 mi Calm Calm - N/A   Clear
10:55 AM 30.2 °F 24.3 °F 19.4 °F 64% 30.34 in 10.0 mi WNW 5.8 mph - N/A   Clear
11:15 AM 30.2 °F 24.3 °F 19.4 °F 64% 30.33 in 10.0 mi NNW 5.8 mph - N/A   Clear
11:35 AM 32.0 °F - 19.4 °F 60% 30.32 in 10.0 mi Calm Calm - N/A   Clear
11:55 AM 33.8 °F 29.6 °F 19.4 °F 56% 30.31 in 10.0 mi SW 4.6 mph - N/A   Clear
12:15 PM 33.8 °F 27.7 °F 19.4 °F 56% 30.31 in 10.0 mi West 6.9 mph - N/A   Clear
12:35 PM 33.8 °F - 21.2 °F 60% 30.29 in 10.0 mi Calm Calm - N/A   Clear
12:55 PM 33.8 °F 30.8 °F 19.4 °F 56% 30.29 in 10.0 mi West 3.5 mph - N/A   Clear
1:15 PM 35.6 °F 32.8 °F 21.2 °F 56% 30.28 in 10.0 mi NW 3.5 mph - N/A   Clear
1:35 PM 35.6 °F 31.7 °F 19.4 °F 52% 30.27 in 10.0 mi NW 4.6 mph - N/A   Clear
1:55 PM 35.6 °F 29.2 °F 21.2 °F 56% 30.26 in 10.0 mi WSW 8.1 mph - N/A   Clear
2:15 PM 35.6 °F 30.7 °F 21.2 °F 56% 30.25 in 10.0 mi SW 5.8 mph - N/A   Clear
2:35 PM 35.6 °F - 19.4 °F 52% 30.24 in 10.0 mi Calm Calm - N/A   Clear
2:55 PM 37.4 °F 34.9 °F 21.2 °F 52% 30.24 in 10.0 mi South 3.5 mph - N/A   Clear
3:15 PM 37.4 °F 31.4 °F 21.2 °F 52% 30.24 in 10.0 mi WSW 8.1 mph - N/A   Clear
3:35 PM 37.4 °F 32.1 °F 21.2 °F 52% 30.24 in 10.0 mi SW 6.9 mph - N/A   Clear
3:55 PM 35.6 °F 30.7 °F 21.2 °F 56% 30.23 in 10.0 mi WSW 5.8 mph - N/A   Clear
4:15 PM 33.8 °F 30.8 °F 23.0 °F 65% 30.23 in 10.0 mi WSW 3.5 mph - N/A   Clear
4:35 PM 32.0 °F 26.4 °F 21.2 °F 64% 30.21 in 10.0 mi SW 5.8 mph - N/A   Clear
4:55 PM 32.0 °F 28.7 °F 21.2 °F 64% 30.21 in 10.0 mi SW 3.5 mph - N/A   Clear
5:15 PM 30.2 °F - 21.2 °F 69% 30.20 in 10.0 mi Calm Calm - N/A   Clear
5:35 PM 30.2 °F - 23.0 °F 75% 30.20 in 10.0 mi Calm Calm - N/A   Clear
5:55 PM 30.2 °F - 23.0 °F 75% 30.20 in 10.0 mi Calm Calm - N/A   Clear
6:15 PM 30.2 °F - 21.2 °F 69% 30.20 in 10.0 mi Calm Calm - N/A   Clear
6:35 PM 26.6 °F - 21.2 °F 80% 30.19 in 10.0 mi Calm Calm - N/A   Clear
6:55 PM 28.4 °F - 21.2 °F 74% 30.19 in 10.0 mi Calm Calm - N/A   Clear
7:15 PM 26.6 °F - 23.0 °F 86% 30.18 in 10.0 mi Calm Calm - N/A   Clear
7:35 PM 26.6 °F - 21.2 °F 80% 30.17 in 10.0 mi Calm Calm - N/A   Clear
7:55 PM 26.6 °F - 21.2 °F 80% 30.16 in 10.0 mi Calm Calm - N/A   Clear
8:15 PM 26.6 °F - 21.2 °F 80% 30.16 in 10.0 mi Calm Calm - N/A   Clear
8:35 PM 26.6 °F - 21.2 °F 80% 30.15 in 10.0 mi Calm Calm - N/A   Clear
8:55 PM 28.4 °F 22.2 °F 19.4 °F 69% 30.14 in 10.0 mi South 5.8 mph - N/A   Clear
9:15 PM 28.4 °F 24.6 °F 21.2 °F 74% 30.13 in 10.0 mi SSE 3.5 mph - N/A   Clear
9:35 PM 28.4 °F 23.3 °F 21.2 °F 74% 30.12 in 10.0 mi South 4.6 mph - N/A   Clear
9:55 PM 28.4 °F 22.2 °F 21.2 °F 74% 30.12 in 10.0 mi South 5.8 mph - N/A   Clear
10:15 PM 30.2 °F 23.4 °F 21.2 °F 69% 30.11 in 10.0 mi South 6.9 mph - N/A   Clear
10:35 PM 30.2 °F 24.3 °F 21.2 °F 69% 30.12 in 10.0 mi SSW 5.8 mph - N/A   Clear
10:55 PM 28.4 °F 21.2 °F 21.2 °F 74% 30.11 in 10.0 mi South 6.9 mph - N/A   Clear
11:15 PM 30.2 °F 23.4 °F 21.2 °F 69% 30.10 in 10.0 mi South 6.9 mph - N/A   Clear
11:35 PM 30.2 °F 23.4 °F 21.2 °F 69% 30.10 in 10.0 mi South 6.9 mph - N/A   Clear
11:55 PM 30.2 °F 23.4 °F 21.2 °F 69% 30.09 in 10.0 mi South 6.9 mph - N/A   Clear